Wind_Speed
16 16 16 15 16 17 16 16 16 15 15 14 14 13 13 12 12 12 11 11 10 10 9 8 8 7 7 7 7 7 7 7 8 8 8 8 9 9 10 10 11 12 12
17 17 17 17 17 17 17 18 17 17 17 16 15 15 14 13 14 14 13 13 12 12 11 10 9 9 9 9 9 8 8 8 9 9 9 9 10 10 11 11 12 13 13
18 19 18 18 18 18 18 19 19 19 19 18 18 17 16 15 15 15 15 15 15 14 13 12 12 11 11 11 10 10 10 10 10 10 10 11 11 11 12 12 13 13 14
20 20 20 20 19 20 20 20 20 21 21 21 20 19 18 17 17 17 17 17 17 16 15 14 14 13 13 12 12 11 11 11 11 11 11 12 12 13 13 14 14 15 15
23 22 22 21 21 21 21 22 22 22 23 23 22 21 20 19 19 19 19 19 18 18 17 17 16 16 15 14 13 13 12 12 12 12 13 13 14 14 14 15 15 16 16
25 24 24 23 23 23 23 24 24 24 24 25 24 24 23 21 21 21 20 20 20 20 19 19 18 18 17 16 15 15 15 14 14 14 14 14 15 15 16 16 17 17 17
28 27 26 25 25 24 25 25 25 25 26 26 27 26 26 24 23 22 22 22 21 21 21 20 20 19 19 18 18 17 16 16 16 16 16 16 16 16 17 17 18 18 18
30 29 28 27 27 27 26 26 27 27 27 28 29 29 28 27 26 25 24 24 23 23 22 22 21 21 21 20 19 18 18 17 17 17 17 17 18 18 18 19 19 19 19
32 31 30 29 29 28 27 27 28 28 29 29 30 30 30 29 28 27 26 26 25 24 24 23 23 23 23 22 21 20 19 19 18 18 19 19 19 20 20 20 20 20 21
33 32 31 30 30 29 29 29 29 29 30 30 31 31 31 31 30 29 28 27 27 26 26 25 25 24 24 23 22 22 21 20 20 20 20 20 21 21 21 21 21 22 22
34 33 33 32 30 30 31 30 30 31 32 32 31 31 31 32 32 31 30 29 28 28 27 27 26 26 26 25 24 23 23 22 21 21 22 22 22 22 23 23 22 23 24
34 34 34 34 32 31 32 32 32 33 34 34 34 33 32 32 32 32 31 31 30 29 29 29 28 28 28 27 26 25 25 24 23 23 23 23 23 24 24 24 24 24 25
34 34 34 34 33 33 33 33 33 34 35 35 35 35 33 33 33 33 33 32 32 31 31 30 31 30 29 29 28 27 27 26 25 25 25 25 24 24 25 25 25 26 27
34 34 34 34 34 34 34 33 33 35 36 36 36 37 36 35 34 34 34 33 33 32 31 31 32 31 31 30 29 29 28 28 27 27 27 27 26 26 26 26 27 27 28
35 35 34 34 34 34 34 34 33 35 36 37 37 38 37 36 36 36 35 34 33 33 33 31 32 31 31 30 30 30 30 29 28 28 28 28 28 28 28 28 29 29 30
34 34 34 35 35 35 34 35 35 35 37 38 38 39 38 37 37 37 37 36 35 34 34 33 33 33 32 32 31 30 30 30 29 30 30 30 30 30 30 30 30 30 31
34 33 33 34 35 36 35 35 36 36 37 38 39 40 40 39 39 39 38 38 37 35 33 33 33 34 34 33 33 32 32 31 31 31 31 31 31 31 31 31 31 31 32
33 33 33 33 34 36 37 36 36 37 37 38 39 40 41 40 39 39 39 39 38 37 35 32 32 33 33 33 33 32 32 31 31 32 32 32 32 32 32 32 33 33 33
33 34 33 33 35 35 36 36 36 37 36 36 37 38 40 40 40 39 39 39 39 38 37 36 34 33 33 34 34 34 33 32 32 33 33 33 33 33 33 33 34 34 34
32 34 34 34 35 35 35 36 36 36 37 37 37 37 39 39 40 40 40 39 38 38 37 38 36 35 35 35 35 35 34 33 34 34 34 33 33 34 34 34 34 34 34
32 34 35 34 34 35 35 34 35 35 36 37 37 37 39 39 39 39 40 39 39 39 38 38 37 36 36 36 36 36 35 34 34 35 36 35 35 35 34 34 34 34 34
32 32 33 35 34 34 35 35 36 36 36 37 37 37 38 39 38 39 40 40 40 39 39 39 39 38 37 36 37 37 37 36 36 35 36 37 36 35 35 34 34 34 33
30 31 32 33 33 34 35 35 36 35 35 36 36 36 37 38 38 38 39 39 39 39 40 40 40 39 38 38 38 38 39 39 37 35 36 37 36 36 35 35 35 34 34
29 30 31 32 34 35 36 36 36 35 35 35 36 36 35 36 38 39 39 39 39 40 40 40 41 40 39 38 38 39 39 39 39 37 37 37 36 35 35 35 35 35 35
28 28 29 30 32 33 35 35 35 35 35 35 35 36 36 36 37 39 39 39 40 41 40 40 41 41 40 39 38 38 39 38 38 38 37 36 35 35 35 35 35 35 35
29 28 29 30 31 32 33 34 35 34 34 34 35 35 35 36 37 38 40 38 38 40 40 40 40 40 40 40 39 38 38 39 38 38 38 37 36 36 36 35 34 34 35
Wind_Direction
248 248 246 244 244 242 240 240 241 242 241 241 239 240 243 240 239 238 242 244 245 245 248 252 256 260 266 275 285 293 299 302 305 306 309 311 313 315 318 321 323 324 324
247 247 248 246 245 243 242 241 239 240 240 240 240 243 243 242 241 240 242 246 248 247 248 253 257 261 266 272 278 285 291 295 298 300 303 305 307 310 312 315 316 318 319
247 247 246 244 245 246 245 243 240 239 239 240 241 244 242 241 242 242 244 247 247 248 249 253 257 262 266 270 274 280 285 289 293 297 300 302 305 307 308 310 311 313 313
247 247 246 244 244 246 246 244 242 242 241 242 242 243 245 244 242 244 245 247 247 249 251 254 258 262 264 268 271 275 280 285 290 294 296 299 302 304 305 307 308 309 309
248 248 247 247 246 246 246 245 243 242 242 242 244 243 244 245 244 245 248 249 248 250 252 255 259 262 263 265 267 272 276 281 285 290 293 297 299 301 303 305 305 306 307
248 248 246 246 247 246 246 246 245 244 242 242 243 243 243 245 245 247 249 249 251 252 253 256 259 261 262 263 265 269 274 278 282 287 290 294 297 299 301 303 304 305 306
249 250 248 247 247 247 246 247 246 245 245 245 244 243 244 245 246 247 249 250 252 254 254 256 258 259 261 263 264 267 271 276 281 285 288 292 295 298 298 300 301 302 304
249 249 249 249 247 247 247 247 246 246 246 246 246 244 244 245 247 248 248 251 252 253 255 256 258 258 260 262 264 266 269 274 279 283 286 290 294 297 297 298 299 300 302
249 248 249 249 249 249 249 248 247 247 247 246 245 245 245 245 247 249 249 250 251 253 254 255 257 258 260 261 263 265 268 272 277 281 283 287 291 294 296 297 298 299 300
247 248 247 248 248 249 249 249 248 247 246 246 245 245 246 246 246 248 250 250 251 253 254 256 258 259 259 260 263 265 268 271 275 279 282 286 289 293 296 297 297 298 299
246 246 247 247 248 250 250 249 248 247 245 244 244 245 245 246 247 248 250 250 251 252 253 255 258 258 258 259 262 265 268 271 274 278 281 284 287 291 294 295 297 298 299
245 246 248 248 248 250 251 250 248 246 244 243 243 243 244 245 247 249 250 250 251 253 254 255 257 257 258 260 261 264 267 271 274 278 281 283 286 289 292 294 296 297 298
244 246 248 249 249 250 251 250 248 246 244 243 242 242 243 245 246 248 249 250 251 252 253 255 256 257 258 259 262 265 267 270 273 276 279 282 284 287 290 293 296 296 297
243 246 248 249 250 251 251 249 248 245 243 242 242 242 242 244 245 247 249 250 251 252 253 255 255 256 258 260 262 264 266 269 272 275 278 281 283 286 289 292 294 296 297
243 245 248 249 251 252 250 247 247 245 242 241 242 241 242 244 245 247 249 251 251 252 252 254 255 256 258 260 262 264 266 268 271 274 277 279 282 285 288 290 293 295 295
243 246 248 250 252 252 251 247 245 244 242 241 241 242 243 244 245 246 248 251 252 253 254 254 256 257 258 260 261 263 265 267 270 273 276 279 281 284 286 289 292 294 295
244 247 249 250 252 251 251 249 246 244 242 242 242 242 241 243 244 245 247 250 252 254 256 257 257 258 258 259 261 262 264 266 269 272 275 278 280 283 285 288 290 292 294
244 248 250 250 250 251 250 250 249 246 244 243 243 243 242 243 243 244 246 248 251 252 253 255 257 259 260 260 261 263 265 267 269 272 275 278 280 282 284 286 289 291 293
248 249 251 250 249 250 250 249 249 247 245 245 245 245 244 243 243 243 245 247 249 251 253 255 258 261 262 261 262 262 264 267 269 272 275 277 279 280 282 284 287 290 291
253 251 251 252 250 249 249 249 249 248 245 245 246 246 245 245 246 245 247 248 249 252 253 255 259 261 263 263 263 263 264 266 269 272 274 277 279 280 281 283 286 289 290
253 252 249 251 250 248 247 249 248 247 247 246 247 247 247 247 248 247 250 251 253 255 256 258 260 262 265 265 264 264 265 268 270 273 274 276 278 279 280 281 285 288 289
253 253 252 251 251 248 247 249 247 246 247 247 247 248 248 247 248 249 250 252 255 256 258 261 263 264 265 267 267 265 266 268 270 272 274 275 276 277 278 281 284 286 288
254 253 253 254 252 251 248 249 248 247 247 247 248 249 250 249 248 250 250 251 253 254 257 259 262 263 265 268 269 267 267 268 268 271 273 275 275 276 278 281 283 284 287
253 252 253 255 253 251 250 250 248 248 248 249 249 250 251 250 249 250 252 252 252 255 257 259 261 262 264 268 270 270 270 271 271 271 272 273 274 277 279 281 282 283 286
251 252 251 253 252 250 250 248 248 249 250 250 249 250 252 251 249 250 252 253 253 254 256 259 261 262 264 265 268 270 270 270 272 273 273 274 274 276 279 281 281 284 286
251 253 253 254 253 251 250 248 247 249 250 250 250 250 253 252 250 251 252 254 255 255 257 258 260 261 263 264 266 269 270 269 270 273 274 273 274 276 279 280 281 283 286
Height
5861 5862 5863 5864 5865 5866 5867 5868 5869 5870 5871 5872 5872 5873 5874 5874 5875 5875 5876 5876 5876 5876 5876 5876 5876 5876 5875 5875 5875 5874 5873 5872 5872 5871 5870 5868 5867 5866 5865 5863 5862 5860 5859
5858 5858 5860 5861 5862 5863 5864 5865 5867 5868 5869 5870 5870 5871 5872 5872 5873 5873 5874 5874 5874 5874 5874 5874 5874 5874 5874 5873 5873 5872 5872 5871 5870 5869 5868 5867 5866 5864 5863 5862 5860 5859 5857
5854 5855 5856 5858 5859 5860 5861 5862 5864 5865 5866 5867 5868 5869 5869 5870 5870 5871 5871 5872 5872 5872 5872 5872 5872 5872 5872 5871 5871 5871 5870 5869 5868 5867 5866 5865 5864 5863 5861 5860 5858 5857 5855
5850 5851 5853 5854 5855 5857 5858 5859 5860 5862 5863 5864 5865 5866 5866 5867 5868 5869 5869 5869 5869 5870 5870 5870 5870 5870 5870 5869 5869 5868 5868 5867 5866 5865 5864 5863 5862 5860 5859 5858 5856 5854 5853
5846 5847 5849 5850 5851 5852 5854 5855 5856 5858 5859 5860 5861 5862 5863 5864 5865 5865 5866 5866 5867 5867 5867 5867 5868 5867 5867 5867 5866 5866 5865 5865 5864 5863 5862 5861 5859 5858 5857 5855 5854 5852 5850
5841 5843 5844 5845 5846 5848 5849 5851 5852 5853 5855 5856 5857 5858 5859 5859 5861 5861 5862 5863 5864 5864 5864 5864 5864 5864 5864 5864 5863 5863 5863 5862 5861 5860 5859 5858 5857 5855 5854 5852 5851 5849 5847
5835 5837 5839 5840 5841 5843 5844 5846 5847 5849 5850 5851 5853 5854 5855 5856 5856 5857 5859 5860 5860 5860 5861 5861 5861 5861 5861 5861 5860 5860 5860 5859 5858 5857 5856 5855 5854 5852 5851 5849 5848 5846 5844
5829 5831 5833 5834 5835 5837 5839 5840 5842 5843 5845 5846 5847 5849 5850 5851 5852 5853 5854 5855 5856 5856 5857 5857 5857 5857 5857 5857 5857 5857 5856 5856 5855 5854 5853 5852 5851 5849 5847 5846 5844 5843 5841
5822 5824 5826 5828 5829 5831 5832 5834 5836 5837 5839 5840 5842 5843 5845 5846 5847 5848 5849 5850 5851 5852 5852 5853 5853 5853 5853 5853 5853 5853 5853 5852 5851 5851 5850 5848 5847 5845 5844 5842 5840 5839 5837
5814 5817 5819 5821 5822 5824 5826 5827 5829 5830 5832 5834 5835 5837 5839 5841 5842 5843 5844 5845 5846 5847 5848 5848 5848 5848 5848 5848 5848 5848 5848 5848 5847 5846 5846 5844 5843 5841 5840 5838 5836 5834 5832
5806 5808 5811 5813 5815 5817 5818 5820 5821 5823 5824 5826 5828 5830 5832 5834 5836 5837 5838 5839 5840 5841 5842 5843 5843 5843 5843 5843 5844 5844 5844 5843 5842 5842 5841 5840 5839 5837 5835 5834 5832 5830 5828
5797 5800 5802 5804 5807 5809 5810 5812 5813 5815 5816 5818 5821 5823 5825 5827 5829 5831 5832 5833 5834 5835 5836 5837 5837 5838 5838 5838 5839 5839 5839 5838 5838 5837 5836 5835 5834 5832 5831 5829 5827 5825 5823
5789 5791 5794 5796 5798 5800 5801 5803 5805 5806 5808 5811 5813 5816 5817 5820 5822 5824 5825 5826 5828 5829 5830 5831 5831 5832 5832 5833 5833 5833 5833 5833 5833 5832 5831 5830 5829 5827 5826 5824 5822 5820 5818
5780 5783 5785 5787 5789 5790 5792 5794 5796 5798 5800 5803 5805 5808 5810 5812 5815 5817 5818 5820 5821 5822 5823 5824 5824 5825 5826 5827 5827 5827 5827 5827 5827 5826 5825 5824 5823 5822 5820 5818 5816 5814 5812
5771 5774 5776 5778 5780 5781 5783 5785 5787 5789 5791 5794 5797 5799 5802 5804 5807 5809 5812 5813 5814 5816 5817 5817 5818 5819 5819 5820 5820 5821 5821 5821 5821 5820 5819 5818 5817 5816 5814 5812 5810 5808 5805
5763 5765 5767 5769 5771 5772 5773 5775 5778 5780 5782 5785 5788 5791 5794 5797 5799 5802 5804 5806 5807 5809 5810 5811 5811 5812 5812 5813 5814 5814 5814 5814 5814 5814 5813 5812 5811 5809 5808 5806 5804 5801 5799
5755 5757 5758 5760 5761 5762 5764 5766 5768 5771 5773 5776 5779 5782 5785 5788 5791 5793 5796 5798 5800 5801 5803 5803 5804 5805 5805 5806 5806 5807 5807 5807 5807 5807 5806 5805 5804 5802 5801 5799 5797 5794 5792
5746 5748 5749 5751 5752 5753 5755 5757 5759 5761 5764 5767 5770 5772 5776 5779 5783 5785 5787 5790 5792 5793 5795 5796 5797 5798 5798 5799 5799 5800 5800 5800 5800 5799 5799 5798 5796 5795 5793 5791 5789 5787 5784
5738 5739 5740 5742 5743 5744 5746 5748 5750 5752 5756 5758 5761 5764 5767 5770 5773 5776 5779 5781 5784 5785 5787 5788 5790 5790 5791 5791 5792 5792 5792 5792 5792 5792 5791 5790 5788 5787 5786 5784 5782 5779 5777
5729 5730 5731 5733 5734 5735 5737 5739 5741 5744 5747 5749 5752 5755 5758 5761 5764 5768 5771 5773 5775 5777 5778 5780 5781 5782 5783 5784 5784 5784 5784 5784 5784 5783 5783 5782 5780 5779 5777 5776 5774 5771 5769
5721 5722 5723 5724 5725 5727 5729 5731 5733 5735 5738 5741 5744 5747 5750 5753 5756 5759 5762 5764 5766 5769 5770 5772 5773 5774 5775 5775 5776 5776 5776 5776 5775 5775 5774 5773 5772 5771 5769 5767 5766 5763 5761
5714 5714 5715 5716 5718 5719 5721 5723 5725 5728 5730 5733 5736 5738 5741 5744 5747 5750 5753 5755 5757 5760 5762 5763 5764 5765 5766 5767 5767 5768 5768 5769 5767 5767 5766 5764 5763 5762 5761 5759 5757 5755 5753
5706 5707 5708 5709 5710 5711 5713 5715 5717 5720 5723 5726 5728 5731 5733 5736 5739 5741 5744 5746 5748 5751 5753 5755 5756 5757 5758 5758 5758 5759 5759 5759 5760 5759 5757 5756 5754 5753 5752 5751 5749 5747 5745
5698 5699 5700 5701 5703 5704 5705 5707 5710 5712 5715 5717 5720 5723 5725 5727 5729 5733 5734 5736 5739 5742 5744 5745 5746 5748 5749 5749 5749 5749 5749 5749 5749 5750 5749 5748 5746 5745 5744 5742 5741 5739 5737
5691 5692 5693 5694 5695 5696 5698 5700 5702 5705 5707 5709 5712 5715 5717 5719 5721 5724 5726 5727 5729 5732 5734 5735 5736 5738 5739 5740 5740 5739 5739 5739 5739 5739 5739 5739 5737 5736 5735 5734 5732 5730 5728
5684 5685 5686 5687 5688 5689 5691 5693 5695 5698 5700 5702 5704 5707 5709 5710 5713 5715 5716 5718 5720 5722 5724 5725 5727 5728 5729 5730 5730 5730 5730 5730 5730 5730 5729 5729 5728 5728 5726 5725 5723 5722 5720